Погода Алтай

Погода Алтай : погода сейчас, прогноз погоды и архив. Всё, что Вы хотите узнать о погоде Алтай!

Поиск расширенной информации на нашем сайте:

Другие новости

Новости СМИ2

Главная страница сайта

Новости сайта

03.07.2017

Напоминаем, что на нашем специализированном сайте Метеоцентр.Азия вы можете получить высокодетализированные автоматические прогнозы погоды по пунктам России, СНГ и мира в авиационном формате (включающие направление и скорость ветра, видимость, явления погоды, количество и форму облачности, нижнюю и верхнюю границу облачности).

Рекомендуем: купить офис в бизнес центре хамовническая слобода

Погода Алтай - сегодня

Время (UTC), дата Ветер
(°,м/с) 
Видим.   Явления Облачность Т
(°С)
Тd
(°С)
f(%) Тe
(°С)
Pmin
(гПа)
dP
(гПа)
Po
(мм)
O2
(г/м3)
Тmin Tmax R s Состояние
почвы
12 12.08.18 290 (З) н/о    н/о 
+17.1 +6 48 +17  1005.5  0.7  751  284           
15 12.08.18 260 (З) 2{10}  20000 м    8/4 600 м средняя 
[Sc|Ac cast]
+15 +8.1 63 +16  1005.8  0.3  752  286    +17.9       
18 12.08.18 240 (ЮЗ) 20000 м    9/9 600 м 
[Sc]
+13 +8.9 76 +13  1006.3  0.4  752  288           
21 12.08.18 250 (З) 20000 м    8/6 600 м средняя 
[Sc|Ac trans]
+12 +9 82 +12  1006.9  0.6  752  289           
00 13.08.18 220 (ЮЗ) 20000 м    10/10 600 м 
[Sc]
+11.8 +9.6 86 +13  1007  0.1  752  289           
03 13.08.18 220 (ЮЗ) 20000 м    9/9 600 м 
[Sc]
+14.4 +10.1 75 +16  1007.6  0.6  753  286  +11.8         
06 13.08.18 290 (З) н/о    н/о 
+19.6 +11.8 61 +24  1007.9  0.4  753  281           
09 13.08.18 220 (ЮЗ) 20000 м    6/4 600 м верхняя 
[Cu hum|Ci sp]
+22.4 +11.3 49 +25  1008  0.2  753  278           
12 13.08.18 180 (Ю) н/о    н/о 
+23.2 +12.9 52 +28  1007.9  0.1  753  277           
15 13.08.18 160 (Ю) 20000 м    ясно 
+20.3 +14.3 68 +28  1007.5  -0.5  753  279    +24       
18 13.08.18 180 (Ю) 20000 м    3/0 верхняя 
[Ci fib]
+18.9 +14.8 77 +28  1007  -0.5  752  280           
21 13.08.18 190 (Ю) 20000 м    6/0 верхняя 
[Ci sp]
+18.8 +16.6 87 +30  1006.5  -0.5  752  280           
00 14.08.18 210 (ЮЗ) 20000 м    8/3 600 м кучево-дожд., верхняя 
[Cb calv|Ci]
+18.4 +16.4 88 +30  1006.4  0.1  752  280           
03 14.08.18 210 (ЮЗ) 20000 м    8/0 верхняя 
[Ci]
+21 +16.3 75 +32  1006.8  0.5  752  278  +18.1         
06 14.08.18 210 (ЮЗ) 5-10{10}  н/о    н/о 
+26.3 +14.7 49 +34  1006.6  -0.2  752  273           
12 14.08.18 230 (ЮЗ) 3{11}  н/о    н/о 
+27.8 +12.6 39 +33  1006.5  -0.2  752  273           
18 14.08.18 160 (Ю) 20000 м    10/10 600 м кучево-дожд. 
[Cb calv]
+19.1 +14 72 +28  1007.3  0.6  753  281           
21 14.08.18 150 (ЮВ) 20000 м    10/10 600 м кучево-дожд. 
[Cb calv]
+17.7 +15 84 +28  1007.3  753  282           
00 15.08.18 150 (ЮВ) 20000 м  {ливн. осадки}  10/10 600 м кучево-дожд. 
[Cb calv]
+17.3 +16.7 96 +31  1006.7  -0.7  752  281           
03 15.08.18 160 (Ю) 10 км  слаб. ливневой дождь  10/10 600 м кучево-дожд. 
[Cb calv]
+17.5 +16.9 96 +30  1006.9  0.2  752  281  +17    0.1     
06 15.08.18 180 (Ю) н/о    н/о 
+19.1 +17.3 89 +33  1006.4  -0.5  752  279           
09 15.08.18 200 (Ю) 10 км  слаб. ливневой дождь  10/10 600 м кучево-дожд. 
[Cb calv]
+20.4 +18.3 88 +35  1006.4  0.1  752  278           
12 15.08.18 290 (З) н/о    н/о 
+19.9 +18.1 89 +35  1006.8  0.4  752  278           
15 15.08.18 030 (СВ) 20000 м  {ливн. осадки}  10/10 300 м кучево-дожд. 
[Cb calv]
+16.6 +15 90 +26  1008  1.1  753  283    +20.4     
18 15.08.18 010 (С) 20000 м  {ливн. осадки}  10/10 600 м кучево-дожд. 
[Cb calv]
+15.3 +14.1 93 +23  1008.4  0.4  753  285           
Время (UTC), дата Ветер
(°,м/с) 
Видим.   Явления Облачность Т
(°С)
Тd
(°С)
f(%) Тe
(°С)
Pmin
(гПа)
dP
(гПа)
Po
(мм)
O2
(г/м3)
Тmin Tmax R s Состояние
почвы

Для получения пояснительной информации подведите курсор к названию столбца.

ПОГОДА Алтай - архив

Всё, что Вы хотите узнать о погоде Алтай - удобно и подробно!

Выберите нужную дату (начиная с 1 января 2015* года) и нажмите кнопку "Найти".
Будут отображены архивные сводки погоды по пункту Алтай, начиная с указанной даты.


Отображать данные в формате CSV (для использования в таблицах Excel)


Внимание! Наш архив погоды предназначен исключительно для личного некоммерческого использования в познавательных целях. Если Вам необходимы официальные справки о состоянии погоды (для производственных, юридических, коммерческих и т.п. целей), обращайтесь в органы Росгидромета.

*Примечание: данная дата относится к архиву по метеостанциям СССР (Россия, СНГ, Балтия).
Архив по метеостанциям Зарубежной Европы и Азии (кроме Китая) хранится 10 дней, по другим регионам земного шара (Китай, Африка, Америка, Австралия, Океания) - 1 день.

Алтай - район местоположения метеостанции


Название, широта, долгота, высота метеостанции:
Алтай 60.3°ш. 68.9°д. 30 м над ур. моря [Российская Федерация]

Дополнительная информация

В oтличие oт бoльшинства пoгoдных сайтoв мы публикуем пoдрoбную метеoинфoрмацию в детальнoм прoфессиoнальнoм фoрмате.

Характеристики температуры и влажнoсти вoздуха измеряются на высoте 2 м в тени вдали oт зданий и деревьев.
Скoрoсть ветра измеряется на высoте 10 м (на урoвне рoста челoвека скoрoсть ветра ниже в 1.5-2 раза). Если метеoстанция нахoдится в гoрoде или в лесу, тo скoрoсть ветра занижена на 2-4 м/с пo сравнению с oткрытым местoм. Скoрoсть ветра над акватoриями крупных рек и oзёр, а также на вершинах хoлмoв на 2-5 м/с выше, чем в oбычных услoвиях.
Атмoсфернoе давление в разных тoчках местнoсти мoжет значительнo oтличаться oт давления на метеoстанции, в зависимoсти oт услoвий рельефа (при пoдъёме на 10 м давление пoнижается примернo на 1 мм рт.ст.).